Flight Track Log - Related Links

Times and Time Zones

All times are in EDT time to prevent confusion due to time zone crossing. See the OPT332 flight status page for this flight to view local times or setup timezone preferences in your user account.

Time Position Orientation Groundspeed Altitude Reporting Facility
EDT Latitude Longitude Course Direction KTS MPH feet Rate Location/Type
Mon 09:31:48 AM 32.8333 -96.8333 90° East 149 171 1,800  Level Dallas / Fort Worth TRACON
Mon 09:33:07 AM 32.8333 -96.7833 90° East 195 224 5,900 2,739 Climbing Dallas / Fort Worth TRACON
Mon 09:34:06 AM 32.9000 -96.7833 360° North 270 311 8,100 2,672 Climbing Dallas / Fort Worth TRACON
Mon 09:35:06 AM 32.9833 -96.7833 360° North 280 322 11,200 2,842 Climbing Dallas / Fort Worth TRACON
Mon 09:36:57 AM 33.0078 -96.9453 280° West 287 330 16,200 2,421 Climbing Fort Worth Center
Mon 09:37:57 AM 33.0208 -97.0442 279° West 293 337 18,100 2,000 Climbing Fort Worth Center
Mon 09:38:57 AM 33.0314 -97.1483 277° West 298 343 20,200 1,950 Climbing Fort Worth Center
Mon 09:39:57 AM 33.0400 -97.2475 276° West 330 380 22,000 1,750 Climbing Fort Worth Center
Mon 09:40:57 AM 33.0547 -97.3639 279° West 343 395 23,700 1,600 Climbing Fort Worth Center
Mon 09:41:57 AM 33.0672 -97.4778 277° West 350 403 25,200 1,550 Climbing Fort Worth Center
Mon 09:42:57 AM 33.0775 -97.5969 276° West 355 409 26,800 1,500 Climbing Fort Worth Center
Mon 09:43:57 AM 33.0919 -97.7208 278° West 366 421 28,200 1,500 Climbing Fort Worth Center
Mon 09:44:57 AM 33.1269 -97.8400 289° West 372 428 29,800 1,600 Climbing Fort Worth Center
Mon 09:45:57 AM 33.1642 -97.9594 290° West 377 434 31,400 1,550 Climbing Fort Worth Center
Mon 09:46:57 AM 33.2031 -98.0814 291° West 388 447 32,900 1,550 Climbing Fort Worth Center
Mon 09:47:57 AM 33.2400 -98.2058 290° West 393 452 34,500 1,600 Climbing Fort Worth Center
Mon 09:48:57 AM 33.2789 -98.3278 291° West 393 452 36,100 1,650 Climbing Fort Worth Center
Mon 09:49:57 AM 33.3153 -98.4550 289° West 386 444 37,800 1,500 Climbing Fort Worth Center
Mon 09:50:57 AM 33.3519 -98.5697 291° West 380 437 39,100 1,250 Climbing Fort Worth Center
Mon 09:51:57 AM 33.3883 -98.6822 291° West 370 426 40,300 1,050 Climbing Fort Worth Center
Mon 09:52:57 AM 33.4228 -98.7972 290° West 370 426 41,200 900 Climbing Fort Worth Center
Mon 09:53:57 AM 33.4569 -98.9097 290° West 370 426 42,100 850 Climbing Fort Worth Center
Mon 09:54:57 AM 33.4908 -99.0225 290° West 370 426 42,900 450 Climbing Fort Worth Center
Mon 09:55:57 AM 33.5269 -99.1378 291° West 370 426 43,000 50 Climbing Fort Worth Center
Mon 09:56:57 AM 33.5650 -99.2581 291° West 370 426 43,000  Level Fort Worth Center
Mon 09:57:57 AM 33.6028 -99.3836 290° West 388 447 43,000  Level Fort Worth Center
Mon 09:58:57 AM 33.6633 -99.4997 302° West 402 463 43,000  Level Fort Worth Center
Mon 09:59:57 AM 33.7514 -99.5969 317° Northwest 407 468 43,000  Level Fort Worth Center
Mon 10:00:57 AM 33.8394 -99.6942 317° Northwest 413 475 43,000  Level Fort Worth Center
Mon 10:01:57 AM 33.9233 -99.7864 318° Northwest 418 481 43,000  Level Fort Worth Center
Mon 10:02:57 AM 34.0111 -99.8839 317° Northwest 423 487 43,000  Level Fort Worth Center
Mon 10:03:57 AM 34.0883 -99.9839 313° West 417 480 43,000  Level Fort Worth Center
Mon 10:04:57 AM 34.1486 -100.1011 302° West 412 474 43,000  Level Fort Worth Center
Mon 10:05:57 AM 34.2106 -100.2211 302° West 417 480 43,000  Level Fort Worth Center
Mon 10:06:57 AM 34.2706 -100.3414 301° West 422 486 43,000  Level Fort Worth Center
Mon 10:09:10 AM 34.3969 -100.5922 301° West 422 486 43,000  Level Albuquerque Center
Mon 10:10:12 AM 34.4586 -100.7142 302° West 424 488 43,000  Level Albuquerque Center
Mon 10:11:13 AM 34.5319 -100.8597 301° West 423 487 43,000  Level Albuquerque Center
Mon 10:12:14 AM 34.5925 -100.9822 301° West 424 488 43,000  Level Albuquerque Center
Mon 10:13:16 AM 34.6531 -101.1044 301° West 423 487 43,000  Level Albuquerque Center
Mon 10:14:17 AM 34.7144 -101.2267 301° West 424 488 43,000  Level Albuquerque Center
Mon 10:15:18 AM 34.7742 -101.3500 301° West 423 487 43,000  Level Albuquerque Center
Mon 10:16:20 AM 34.8342 -101.4728 301° West 422 486 43,000  Level Albuquerque Center
Mon 10:17:21 AM 34.8950 -101.5958 301° West 422 486 43,000  Level Albuquerque Center
Mon 10:18:23 AM 34.9542 -101.7208 300° West 423 487 43,000  Level Albuquerque Center
Mon 10:19:24 AM 35.0217 -101.8519 302° West 428 493 43,000  Level Albuquerque Center
Mon 10:20:25 AM 35.0806 -101.9758 300° West 423 487 43,000  Level Albuquerque Center
Mon 10:21:27 AM 35.1356 -102.0939 300° West 420 483 43,000  Level Albuquerque Center
Mon 10:22:29 AM 35.2069 -102.2431 300° West 422 486 43,000  Level Albuquerque Center
Mon 10:23:30 AM 35.2678 -102.3667 301° West 423 487 43,000  Level Albuquerque Center
Mon 10:24:32 AM 35.3272 -102.4906 300° West 423 487 43,000  Level Albuquerque Center
Mon 10:25:33 AM 35.3894 -102.6206 300° West 423 487 43,000  Level Albuquerque Center
Mon 10:26:35 AM 35.4500 -102.7456 301° West 424 488 43,000  Level Albuquerque Center
Mon 10:27:36 AM 35.5092 -102.8719 300° West 424 488 43,000  Level Albuquerque Center
Mon 10:28:38 AM 35.5683 -102.9969 300° West 423 487 43,000  Level Albuquerque Center
Mon 10:29:39 AM 35.6272 -103.1228 300° West 423 487 43,000  Level Albuquerque Center
Mon 10:30:41 AM 35.6867 -103.2469 301° West 419 482 43,000  Level Albuquerque Center
Mon 10:31:43 AM 35.7444 -103.3731 299° West 421 484 43,000  Level Albuquerque Center
Mon 10:32:44 AM 35.8022 -103.4986 300° West 420 483 43,000  Level Albuquerque Center
Mon 10:33:46 AM 35.8700 -103.6444 300° West 419 482 43,000  Level Albuquerque Center
Mon 10:34:48 AM 35.9275 -103.7700 300° West 418 481 43,000  Level Albuquerque Center
Mon 10:35:49 AM 35.9850 -103.8950 300° West 418 481 43,000  Level Albuquerque Center
Mon 10:36:51 AM 36.0419 -104.0206 299° West 417 480 43,000  Level Albuquerque Center
Mon 10:37:53 AM 36.0989 -104.1458 299° West 416 479 43,000  Level Albuquerque Center
Mon 10:38:54 AM 36.1550 -104.2697 299° West 414 476 43,000  Level Albuquerque Center
Mon 10:39:56 AM 36.2114 -104.3939 299° West 411 473 43,000  Level Albuquerque Center
Mon 10:40:58 AM 36.2661 -104.5178 299° West 409 471 43,000  Level Albuquerque Center
Mon 10:42:00 AM 36.3331 -104.6625 300° West 412 474 43,000  Level Albuquerque Center
Mon 10:43:01 AM 36.3878 -104.7875 299° West 410 472 43,000  Level Albuquerque Center
Mon 10:44:03 AM 36.4436 -104.9128 299° West 412 474 43,000  Level Albuquerque Center
Mon 10:45:05 AM 36.4989 -105.0364 299° West 408 470 43,000  Level Albuquerque Center
Mon 10:46:07 AM 36.5539 -105.1606 299° West 408 470 43,000  Level Albuquerque Center
Mon 10:47:09 AM 36.6083 -105.2850 299° West 407 468 43,000  Level Albuquerque Center
Mon 10:48:10 AM 36.6625 -105.4089 299° West 406 467 43,000  Level Albuquerque Center
Mon 10:49:12 AM 36.7250 -105.5517 299° West 406 467 43,000  Level Albuquerque Center
Mon 10:50:14 AM 36.7792 -105.6750 299° West 407 468 43,000  Level Albuquerque Center
Mon 10:50:46 AM 36.8078 -105.7431 298° West 403 464 43,000  Level Denver Center
Mon 10:51:48 AM 36.8603 -105.8636 299° West 408 470 43,000  Level Denver Center
Mon 10:52:50 AM 36.9197 -106.0025 298° West 408 470 43,000  Level Denver Center
Mon 10:54:22 AM 36.9961 -106.1806 298° West 408 470 43,000  Level Albuquerque Center
Mon 10:54:54 AM 37.0306 -106.2597 299° West 410 472 43,000  Level Denver Center
Mon 10:55:56 AM 37.0819 -106.3806 298° West 412 474 43,000  Level Denver Center
Mon 10:56:58 AM 37.1406 -106.5206 298° West 409 471 43,000  Level Denver Center
Mon 10:58:00 AM 37.1917 -106.6414 298° West 410 472 43,000  Level Denver Center
Mon 10:59:02 AM 37.2519 -106.7842 298° West 414 476 43,000  Level Denver Center
Mon 11:00:04 AM 37.3011 -106.9039 297° West 406 467 43,000  Level Denver Center
Mon 11:01:07 AM 37.3603 -107.0456 298° West 409 471 43,000  Level Denver Center
Mon 11:02:09 AM 37.4106 -107.1669 298° West 409 471 43,000  Level Denver Center
Mon 11:03:11 AM 37.4611 -107.2886 298° West 411 473 43,000  Level Denver Center
Mon 11:04:13 AM 37.5197 -107.4294 298° West 408 470 43,000  Level Denver Center
Mon 11:05:15 AM 37.5703 -107.5522 297° West 411 473 43,000  Level Denver Center
Mon 11:06:17 AM 37.6278 -107.6944 297° West 410 472 43,000  Level Denver Center
Mon 11:07:19 AM 37.6783 -107.8169 298° West 410 472 43,000  Level Denver Center
Mon 11:08:21 AM 37.7356 -107.9603 297° West 410 472 43,000  Level Denver Center
Mon 11:09:23 AM 37.7842 -108.0822 297° West 408 470 43,000  Level Denver Center
Mon 11:10:25 AM 37.8419 -108.2253 297° West 409 471 43,000  Level Denver Center
Mon 11:11:27 AM 37.8911 -108.3503 297° West 411 473 43,000  Level Denver Center
Mon 11:12:29 AM 37.9481 -108.4919 297° West 409 471 43,000  Level Denver Center
Mon 11:13:31 AM 37.9964 -108.6100 297° West 402 463 43,000  Level Denver Center
Mon 11:14:33 AM 38.0533 -108.7525 297° West 402 463 43,000  Level Denver Center
Mon 11:15:35 AM 38.1011 -108.8819 295° West 411 473 43,000  Level Denver Center
Mon 11:16:37 AM 38.1581 -109.0283 296° West 411 473 43,000  Level Denver Center
Mon 11:17:39 AM 38.2072 -109.1525 297° West 411 473 43,000  Level Denver Center
Mon 11:18:41 AM 38.2642 -109.2975 297° West 410 472 43,000  Level Denver Center
Mon 11:19:44 AM 38.3125 -109.4244 296° West 413 475 43,000  Level Denver Center
Mon 11:20:46 AM 38.3692 -109.5722 296° West 416 479 43,000  Level Denver Center
Mon 11:21:48 AM 38.4175 -109.6972 296° West 411 473 43,000  Level Denver Center
Mon 11:22:50 AM 38.4656 -109.8247 296° West 414 476 43,000  Level Denver Center
Mon 11:23:52 AM 38.5208 -109.9700 296° West 408 470 43,000  Level Denver Center
Mon 11:24:54 AM 38.5689 -110.0975 296° West 413 475 43,000  Level Denver Center
Mon 11:31:00 AM 38.8775 -110.9250 296° West 413 475 43,000  Level FlightAware ADS-B
Mon 11:32:36 AM 38.9118 -111.0190 295° West 412 474 43,000  Level FlightAware ADS-B
Mon 11:32:56 AM 38.9233 -111.0500 296° West 412 474 43,000  Level FlightAware ADS-B
Mon 11:33:27 AM 38.9971 -111.2530 295° West 412 474 43,000  Level FlightAware ADS-B
Mon 11:34:02 AM 39.0232 -111.3250 295° West 412 474 43,000  Level FlightAware ADS-B
Mon 11:35:02 AM 39.0444 -111.3840 295° West 412 474 43,000  Level FlightAware ADS-B
Mon 11:35:33 AM 39.0984 -111.5340 295° West 411 473 43,000  Level FlightAware ADS-B
Mon 11:36:05 AM 39.1225 -111.6010 295° West 409 471 43,000  Level FlightAware ADS-B
Mon 11:36:45 AM 39.1548 -111.6910 295° West 409 471 43,000  Level FlightAware ADS-B
Mon 11:37:16 AM 39.1782 -111.7570 295° West 410 472 43,000  Level FlightAware ADS-B
Mon 11:37:46 AM 39.2016 -111.8230 295° West 410 472 43,000  Level FlightAware ADS-B
Mon 11:38:17 AM 39.2253 -111.8900 295° West 410 472 43,000  Level FlightAware ADS-B
Mon 11:38:47 AM 39.2485 -111.9550 295° West 411 473 43,000  Level FlightAware ADS-B
Mon 11:39:22 AM 39.2616 -111.9920 295° West 411 473 43,000  Level FlightAware ADS-B
Mon 11:40:03 AM 39.3109 -112.1320 295° West 410 472 43,000  Level FlightAware ADS-B
Mon 11:40:34 AM 39.3347 -112.2000 294° West 410 472 43,000  Level FlightAware ADS-B
Mon 11:41:27 AM 39.3744 -112.3130 294° West 410 472 43,000  Level FlightAware ADS-B
Mon 11:41:59 AM 39.3915 -112.3620 294° West 410 472 43,000  Level FlightAware ADS-B
Mon 11:42:30 AM 39.4240 -112.4550 294° West 411 473 43,000  Level FlightAware ADS-B
Mon 11:43:05 AM 39.4510 -112.5330 294° West 411 473 43,000  Level FlightAware ADS-B
Mon 11:43:48 AM 39.4670 -112.5790 294° West 411 473 43,000  Level FlightAware ADS-B
Mon 11:44:28 AM 39.5093 -112.7020 294° West 411 473 43,000  Level FlightAware ADS-B
Mon 11:44:58 AM 39.5408 -112.7930 294° West 412 474 43,000  Level FlightAware ADS-B
Mon 11:45:28 AM 39.5638 -112.8600 294° West 412 474 43,000  Level FlightAware ADS-B
Mon 11:45:59 AM 39.5870 -112.9280 294° West 413 475 43,000  Level FlightAware ADS-B
Mon 11:46:31 AM 39.6107 -112.9970 294° West 414 476 43,000  Level FlightAware ADS-B
Mon 11:47:04 AM 39.6357 -113.0700 294° West 414 476 43,000  Level FlightAware ADS-B
Mon 11:47:29 AM 39.6486 -113.1080 294° West 414 476 43,000  Level FlightAware ADS-B
Mon 11:47:59 AM 39.6813 -113.2040 294° West 414 476 43,000  Level FlightAware ADS-B
Mon 11:48:29 AM 39.7032 -113.2690 294° West 415 478 43,000  Level FlightAware ADS-B
Mon 11:49:02 AM 39.7284 -113.3440 294° West 415 478 43,000  Level FlightAware ADS-B
Mon 11:49:33 AM 39.7506 -113.4100 294° West 416 479 43,000  Level FlightAware ADS-B
Mon 11:50:05 AM 39.7777 -113.4900 294° West 417 480 43,000  Level FlightAware ADS-B
Mon 11:50:40 AM 39.7966 -113.5470 293° West 417 480 43,000  Level FlightAware ADS-B
Mon 11:50:51 AM 39.8104 -113.5880 294° West 417 480 43,000  Level FlightAware ADS-B
Mon 11:51:24 AM 39.8195 -113.6150 294° West 417 480 43,000  Level FlightAware ADS-B
Mon 11:52:00 AM 39.8638 -113.7480 293° West 417 480 43,000  Level FlightAware ADS-B
Mon 11:52:41 AM 39.8952 -113.8430 293° West 417 480 43,000  Level FlightAware ADS-B
Mon 11:55:30 AM 40.0078 -114.1850 293° West 417 480 43,000  Level FlightAware ADS-B
Mon 11:56:01 AM 40.0472 -114.3060 293° West 418 481 43,000  Level FlightAware ADS-B
Mon 11:56:33 AM 40.0722 -114.3820 293° West 418 481 43,000  Level FlightAware ADS-B
Mon 11:57:10 AM 40.0926 -114.4450 293° West 418 481 43,000  Level FlightAware ADS-B
Mon 11:57:41 AM 40.1237 -114.5410 293° West 415 478 43,000  Level FlightAware ADS-B
Mon 11:58:12 AM 40.1447 -114.6060 293° West 415 478 43,000  Level FlightAware ADS-B
Mon 11:58:54 AM 40.1618 -114.6590 293° West 414 476 43,000  Level FlightAware ADS-B
Mon 11:59:32 AM 40.1976 -114.7710 293° West 415 478 43,000  Level FlightAware ADS-B
Mon 12:00:02 PM 40.2276 -114.8650 293° West 415 478 43,000  Level FlightAware ADS-B
Mon 12:00:40 PM 40.2415 -114.9080 293° West 416 479 43,000  Level FlightAware ADS-B
Mon 12:02:00 PM 40.2938 -115.0730 293° West 416 479 43,000  Level FlightAware ADS-B
Mon 12:03:01 PM 40.3413 -115.2230 293° West 416 479 43,000  Level FlightAware ADS-B
Mon 12:03:31 PM 40.3802 -115.3470 292° West 415 478 43,000  Level FlightAware ADS-B
Mon 12:04:05 PM 40.3888 -115.3750 292° West 415 478 43,000  Level FlightAware ADS-B
Mon 12:04:36 PM 40.4271 -115.4970 292° West 415 478 43,000  Level FlightAware ADS-B
Mon 12:05:10 PM 40.4517 -115.5760 292° West 414 476 43,000  Level FlightAware ADS-B
Mon 12:05:44 PM 40.4600 -115.6030 292° West 414 476 43,000  Level FlightAware ADS-B
Mon 12:06:15 PM 40.4987 -115.7270 292° West 413 475 43,000  Level FlightAware ADS-B
Mon 12:06:47 PM 40.5101 -115.7640 292° West 413 475 43,000  Level FlightAware ADS-B
Mon 12:07:34 PM 40.5423 -115.8690 292° West 412 474 43,000  Level FlightAware ADS-B
Mon 12:11:04 PM 40.6967 -116.3750 292° West 408 470 43,000  Level FlightAware ADS-B
Mon 12:11:36 PM 40.7246 -116.4680 292° West 406 467 43,000  Level FlightAware ADS-B
Mon 12:12:34 PM 40.7655 -116.6040 292° West 406 467 43,000  Level FlightAware ADS-B
Mon 12:13:12 PM 40.7860 -116.6720 292° West 405 466 43,000  Level FlightAware ADS-B
Mon 12:13:46 PM 40.8145 -116.7690 291° West 405 466 43,000  Level FlightAware ADS-B
Mon 12:14:58 PM 40.8608 -116.9264 291° West 404 465 43,000  Level Salt Lake Center
Mon 12:16:00 PM 40.9000 -117.0583 291° West 405 466 43,000  Level Salt Lake Center
Mon 12:17:02 PM 40.9458 -117.2136 291° West 407 468 43,000  Level Salt Lake Center
Mon 12:18:04 PM 40.9850 -117.3472 291° West 407 468 43,000  Level Salt Lake Center
Mon 12:19:06 PM 41.0292 -117.5019 291° West 405 466 43,000  Level Salt Lake Center
Mon 12:20:08 PM 41.0686 -117.6353 291° West 405 466 43,000  Level Salt Lake Center
Mon 12:21:10 PM 41.1131 -117.7925 291° West 407 468 43,000  Level Salt Lake Center
Mon 12:22:12 PM 41.1511 -117.9283 290° West 409 471 43,000  Level Salt Lake Center
Mon 12:23:14 PM 41.1878 -118.0867 287° West 405 466 43,000  Level Salt Lake Center
Mon 12:24:16 PM 41.2078 -118.2278 281° West 404 465 43,000  Level Salt Lake Center
Mon 12:25:18 PM 41.2339 -118.3919 282° West 407 468 43,000  Level Salt Lake Center
Mon 12:26:20 PM 41.2550 -118.5364 281° West 413 475 43,000  Level Salt Lake Center
Mon 12:27:22 PM 41.2808 -118.7017 282° West 411 473 43,000  Level Salt Lake Center
Mon 12:28:24 PM 41.3028 -118.8433 282° West 411 473 43,000  Level Salt Lake Center
Mon 12:29:26 PM 41.3264 -119.0103 281° West 410 472 43,000  Level Salt Lake Center
Mon 12:30:28 PM 41.3469 -119.1525 281° West 410 472 43,000  Level Salt Lake Center
Mon 12:31:30 PM 41.3678 -119.2933 281° West 407 468 43,000  Level Salt Lake Center
Mon 12:32:33 PM 41.3906 -119.4550 281° West 401 461 43,000  Level Salt Lake Center
Mon 12:33:28 PM 41.4122 -119.5925 282° West 397 457 43,000  Level Seattle Center
Mon 12:34:30 PM 41.4322 -119.7308 281° West 399 459 43,000  Level Seattle Center
Mon 12:35:31 PM 41.4517 -119.8725 280° West 400 460 43,000 -393 Level Seattle Center
Mon 12:36:32 PM 41.4728 -120.0322 280° West 398 458 42,200 -885 Descending Seattle Center
Mon 12:37:33 PM 41.4917 -120.1675 281° West 406 467 41,200 -1,082 Descending Seattle Center
Mon 12:38:34 PM 41.5119 -120.3164 280° West 409 471 40,000 -1,230 Descending Seattle Center
Mon 12:39:35 PM 41.5339 -120.4808 280° West 406 467 38,700 -836 Descending Seattle Center
Mon 12:40:36 PM 41.5522 -120.6197 280° West 399 459 38,300 -1,574 Descending Seattle Center
Mon 12:41:37 PM 41.5733 -120.7794 280° West 401 461 35,500 -2,754 Descending Seattle Center
Mon 12:42:38 PM 41.5928 -120.9244 280° West 399 459 32,700 -2,780 Descending Seattle Center
Mon 12:43:40 PM 41.6128 -121.0767 280° West 412 474 29,800 -2,927 Descending Seattle Center
Mon 12:44:41 PM 41.6331 -121.2344 280° West 425 489 26,700 -3,000 Descending Seattle Center
Mon 12:45:42 PM 41.6542 -121.3942 280° West 434 499 23,700 -2,902 Descending Seattle Center
Mon 12:46:43 PM 41.6711 -121.5375 279° West 415 478 20,800 -2,852 Descending Seattle Center
Mon 12:47:44 PM 41.6906 -121.6883 280° West 414 476 17,900 -2,902 Descending Seattle Center
Mon 12:48:45 PM 41.7103 -121.8589 279° West 403 464 14,900 -2,683 Descending Seattle Center
Mon 12:49:47 PM 41.7264 -121.9925 279° West 392 451 12,400 -1,659 Descending Seattle Center
Mon 12:50:48 PM 41.7400 -122.1136 279° West 372 428 11,500 -885 Descending Seattle Center
Mon 12:52:00 PM 41.7500 -122.2856 270° West  Level FlightAware Approximate
Mon 12:59:00 PM 41.7667 -122.4667 270° West  Level FlightAware Approximate
Mon 01:00:00 PM 41.7814 -122.4681 270° West  Level Estimated
Mon 01:01:00 PM 41.7814 -122.4681 270° West  Level Estimated
Mon 01:02:00 PM 41.7814 -122.4681 270° West  Level Estimated

Login

Don't have an account? Register now (free) for customized features, flight alerts, and more!